Quillayute, WA
on Sunday, February 17, 2013

Sunday
Previous Day Next Day
Daily Summary
 ActualAverageRecord
Temperature
Mean Temperature °F 42°F  
Max Temperature 49°F 49°F 57°F (2005)
Min Temperature 36°F 35°F 23°F (1990)
Degree Days
Heating Degree Days 22 23  
Month to date heating degree days 346 391  
Since 1 July heating degree days 3454 3596  
Cooling Degree Days 0 0  
Month to date cooling degree days 0 0  
Year to date cooling degree days 0 0  
Moisture
Dew Point 35°F   
Average Humidity 76    
Maximum Humidity 92    
Minimum Humidity 60    
Precipitation
Precipitation T in 0.36 in 1.76 in (1979)
Month to date precipitation 3.04 6.40  
Year to date precipitation 13.38 21.01  
Wind
Wind Speed 3 mph   
Max Wind Speed 10 mph   
Max Gust Speed 16 mph   
Visibility 4 miles   
Events Rain   

Key: T is trace of precipitation, MM is missing value
Source: NWS Daily Summary
Time(PST)TemperatureDew PointHumidity Pressure Visibility Wind DirectionWind SpeedGust SpeedPrecipitationEvents Conditions
12:53 AM 44.1°F 36.0°F 73% 30.24 in 4.0 miles West 6.9 mph - 0.00 in   Haze
1:53 AM 44.1°F 36.0°F 73% 30.24 in 4.0 miles West 4.6 mph - 0.00 in Rain Light Rain
2:12 AM 44.6°F 35.6°F 71% 30.24 in 5.0 miles Calm Calm - 0.00 in   Haze
2:35 AM 42.8°F 35.6°F 76% 30.23 in 4.0 miles West 3.5 mph - 0.00 in   Haze
2:53 AM 42.1°F 35.1°F 76% 30.23 in 4.0 miles Calm Calm - 0.00 in   Haze
3:53 AM 41.0°F 33.1°F 73% 30.23 in 5.0 miles Calm Calm - N/A   Haze
4:53 AM 39.0°F 35.1°F 86% 30.22 in 4.0 miles ESE 3.5 mph - 0.00 in   Overcast
5:53 AM 37.9°F 34.0°F 86% 30.22 in 4.0 miles Calm Calm - N/A   Overcast
6:53 AM 39.0°F 34.0°F 82% 30.21 in 5.0 miles SE 3.5 mph - 0.00 in   Haze
7:53 AM 37.9°F 35.1°F 89% 30.22 in 3.0 miles Calm Calm - N/A   Mostly Cloudy
8:06 AM 37.4°F 33.8°F 87% 30.22 in 3.0 miles NE 4.6 mph - 0.00 in Rain Light Rain
8:34 AM 39.2°F 35.6°F 87% 30.22 in 4.0 miles Calm Calm - 0.00 in   Haze
8:53 AM 39.9°F 36.0°F 86% 30.22 in 3.0 miles Calm Calm - 0.00 in   Overcast
9:11 AM 41.0°F 35.6°F 81% 30.21 in 3.0 miles East 3.5 mph - N/A   Haze
9:53 AM 42.1°F 37.0°F 82% 30.22 in 4.0 miles ESE 3.5 mph - N/A   Haze
10:53 AM 46.0°F 35.1°F 66% 30.22 in 4.0 miles WSW 4.6 mph - N/A   Haze
11:00 AM 46.4°F 35.6°F 66% 30.21 in 4.0 miles SW 6.9 mph - N/A   Haze
11:09 AM 46.4°F 35.6°F 66% 30.22 in 4.0 miles WSW 3.5 mph - N/A   Haze
11:53 AM 48.0°F 35.1°F 61% 30.22 in 4.0 miles SW 6.9 mph - N/A   Haze
12:53 PM 48.0°F 35.1°F 61% 30.21 in 4.0 miles WSW 8.1 mph - N/A   Haze
1:08 PM 48.2°F 35.6°F 62% 30.20 in 4.0 miles WSW 8.1 mph - N/A   Haze
1:53 PM 48.0°F 35.1°F 61% 30.19 in 4.0 miles SW 8.1 mph - N/A   Haze
2:03 PM 48.2°F 35.6°F 62% 30.18 in 4.0 miles WSW 6.9 mph - N/A   Haze
2:13 PM 48.2°F 35.6°F 62% 30.19 in 4.0 miles West 6.9 mph - N/A   Haze
2:53 PM 46.9°F 34.0°F 61% 30.19 in 4.0 miles WSW 6.9 mph - N/A   Haze
3:53 PM 46.4°F 33.8°F 62% 30.18 in 4.0 miles SW 4.6 mph - N/A   Haze
4:53 PM 45.0°F 35.1°F 68% 30.17 in 4.0 miles West 5.8 mph - N/A   Haze
5:53 PM 41.0°F 34.0°F 76% 30.17 in 4.0 miles Calm Calm - N/A   Haze
6:53 PM 37.9°F 34.0°F 86% 30.17 in 4.0 miles Calm Calm - N/A   Scattered Clouds
7:53 PM 39.9°F 35.1°F 83% 30.16 in 5.0 miles SE 3.5 mph - 0.00 in   Haze
8:41 PM 39.2°F 35.6°F 87% 30.15 in 4.0 miles Calm Calm - N/A   Overcast
9:04 PM 39.2°F 35.6°F 87% 30.14 in 4.0 miles Calm Calm - 0.00 in Rain Light Rain
9:53 PM 39.0°F 35.1°F 86% 30.13 in 4.0 miles East 4.6 mph - 0.00 in   Overcast
10:53 PM 37.9°F 34.0°F 86% 30.11 in 4.0 miles ENE 3.5 mph - N/A   Clear
11:53 PM 37.0°F 34.0°F 89% 30.10 in 4.0 miles Calm Calm - N/A   Overcast
Moon Phase
Feb. 17 Feb. 17 Feb. 25 Mar. 04 Mar. 11
Sunrise:07:20 AM (PST) Moon Rise:10:41 AM (PST)2/17
Sunset:05:44 PM (PST) Moon Set:01:20 AM (PST)2/17

Copyright © 2014 The Weather Underground, Inc.